Location: Dillon
(41.1766°N, 107.0923°W)
Time: 01:46:43
(UTC+00:00)

DIWATA 2B (PO-101) - Pass Details

Date: 06 July 2022
Orbit: 583 x 599 km, 98.0° (Epoch: 15 August)

Event Time Altitude Azimuth Distance (km) Brightness Sun altitude
Exits shadow 08:47:59 41° 128° (SE) 878 ? -22.5°
Maximum altitude 08:49:09 57° 74° (ENE) 710 ? -22.4°
Drops below altitude 10° 08:53:18 10° 356° (N) 1,947 ? -22.1°
Sets 08:55:30 0° 352° (N) 2,853 ? -21.9°
